Plymouth, MA

1:26 AM EST on February 23, 2017 (GMT -0500)
Plymouth Municipal

Weather History for KPYM - November, 2013

Change the Weather History Date:

Thursday, November 28, 2013

  Actual Average Record
Temperature  
Mean Temperature 30 °F -  
Max Temperature 37 °F 50 °F 70 °F (1990)
Min Temperature 23 °F 31 °F 14 °F (1982)
Degree Days  
Heating Degree Days 34    
Moisture  
Dew Point 15 °F    
Average Humidity 52    
Maximum Humidity 76    
Minimum Humidity 35    
Precipitation  
Precipitation 0.00 in - - ()
Sea Level Pressure  
Sea Level Pressure 30.07 in    
Wind  
Wind Speed 14 mph (West)    
Max Wind Speed 24 mph    
Max Gust Speed 34 mph    
Visibility 10 miles    
Events      
Averages and records for this station are not official NWS values.
T = Trace of Precipitation, MM = Missing Value Source: NWS Daily Summary

Daily Weather History Graph

Daily Weather History Graph

Search for Another Location

Airport or City:

Trip Planner

Search our weather history database for the weather conditions in past years. The results will help you decide how hot, cold, wet, or windy it might be!

Date:

Astronomy

Nov. 28, 2013 Rise Set
Actual Time 6:48 AM EST 4:13 PM EST
Civil Twilight 6:17 AM EST 4:44 PM EST
Nautical Twilight 5:42 AM EST 5:19 PM EST
Astronomical Twilight 5:09 AM EST 5:52 PM EST
Moon 1:43 AM EST (11/28) 1:25 PM EST (11/28)
Length of Visible Light 10h 27m
Length of Day
9h 25m
Waning Crescent, 22% of the Moon is Illuminated
Nov 28
Waning Crescent
Dec 2
New
Dec 9
First Quarter
Dec 17
Full
Dec 25
Last Quarter

Hourly Weather History & Observations

Time (EST) Temp. Windchill Dew Point Humidity Pressure Visibility Wind Dir Wind Speed Gust Speed Precip Events Conditions
12:52 AM 37.0 °F 28.5 °F 30.0 °F 76% 29.52 in 10.0 mi West 13.8 mph 20.7 mph N/A   Partly Cloudy
1:52 AM 37.0 °F 28.9 °F 28.9 °F 73% 29.58 in 10.0 mi West 12.7 mph - N/A   Partly Cloudy
2:52 AM 37.0 °F 28.9 °F 28.0 °F 70% 29.62 in 10.0 mi West 12.7 mph 20.7 mph N/A   Mostly Cloudy
3:52 AM 36.0 °F 26.0 °F 25.0 °F 64% 29.68 in 10.0 mi West 17.3 mph 23.0 mph N/A   Overcast
4:52 AM 34.0 °F 24.2 °F 23.0 °F 64% 29.75 in 10.0 mi West 15.0 mph 25.3 mph N/A   Mostly Cloudy
5:52 AM 33.1 °F 22.2 °F 21.0 °F 61% 29.81 in 10.0 mi West 17.3 mph 26.5 mph N/A   Mostly Cloudy
6:52 AM 30.9 °F 19.1 °F 17.1 °F 57% 29.87 in 10.0 mi West 18.4 mph 27.6 mph N/A   Clear
7:52 AM 30.9 °F 19.1 °F 17.1 °F 57% 29.94 in 10.0 mi West 18.4 mph 26.5 mph N/A   Clear
8:52 AM 32.0 °F 18.9 °F 16.0 °F 52% 29.99 in 10.0 mi West 24.2 mph 34.5 mph N/A   Clear
9:52 AM 34.0 °F 23.8 °F 16.0 °F 48% 30.03 in 10.0 mi West 16.1 mph 26.5 mph N/A   Clear
10:52 AM 35.1 °F 24.1 °F 16.0 °F 46% 30.06 in 10.0 mi West 19.6 mph 27.6 mph N/A   Clear
11:52 AM 35.1 °F 24.1 °F 15.1 °F 44% 30.07 in 10.0 mi West 19.6 mph 28.8 mph N/A   Clear
12:52 PM 35.1 °F 23.8 °F 12.9 °F 40% 30.09 in 10.0 mi WNW 20.7 mph 28.8 mph N/A   Clear
1:52 PM 35.1 °F 25.9 °F 10.9 °F 37% 30.13 in 10.0 mi WNW 13.8 mph - N/A   Clear
2:52 PM 34.0 °F 24.2 °F 9.0 °F 35% 30.18 in 10.0 mi West 15.0 mph 23.0 mph N/A   Clear
3:52 PM 32.0 °F 22.5 °F 7.0 °F 35% 30.24 in 10.0 mi WNW 12.7 mph 20.7 mph N/A   Clear
4:52 PM 28.9 °F 22.8 °F 8.1 °F 41% 30.29 in 10.0 mi WNW 5.8 mph - N/A   Clear
5:52 PM 28.0 °F 22.8 °F 8.1 °F 43% 30.33 in 10.0 mi West 4.6 mph - N/A   Clear
6:52 PM 27.0 °F 20.5 °F 9.0 °F 47% 30.36 in 10.0 mi West 5.8 mph - N/A   Clear
7:52 PM 27.0 °F 20.5 °F 9.0 °F 47% 30.39 in 10.0 mi West 5.8 mph - N/A   Clear
8:52 PM 26.1 °F 16.8 °F 9.0 °F 49% 30.41 in 10.0 mi West 9.2 mph - N/A   Clear
9:52 PM 24.1 °F 16.0 °F 10.0 °F 55% 30.43 in 10.0 mi West 6.9 mph - N/A   Clear
10:52 PM 25.0 °F 17.1 °F 10.0 °F 53% 30.44 in 10.0 mi West 6.9 mph - N/A   Clear
11:52 PM 23.0 °F 15.8 °F 10.0 °F 58% 30.45 in 10.0 mi West 5.8 mph - N/A   Clear